Baker, MT

5:50 PM MST on November 23, 2017 (GMT -0700)
Baker Municipal

Weather History for KBHK - May, 2013

Change the Weather History Date:

Tuesday, May 14, 2013

  Actual Average Record
Temperature  
Mean Temperature 62 °F -  
Max Temperature 75 °F 49 °F 84 °F (2001)
Min Temperature 46 °F 42 °F 25 °F (2004)
Degree Days  
Heating Degree Days 4    
Growing Degree Days 12 (Base 50)    
Moisture  
Dew Point 35 °F    
Average Humidity 40    
Maximum Humidity 86    
Minimum Humidity 17    
Precipitation  
Precipitation 0.00 in - - ()
Sea Level Pressure  
Sea Level Pressure 29.78 in    
Wind  
Wind Speed 17 mph (NW)    
Max Wind Speed 34 mph    
Max Gust Speed 46 mph    
Visibility 10 miles    
Events      
Averages and records for this station are not official NWS values.
T = Trace of Precipitation, MM = Missing Value Source: NWS Daily Summary

Daily Weather History Graph

Daily Weather History Graph

Search for Another Location

Airport or City:

Trip Planner

Search our weather history database for the weather conditions in past years. The results will help you decide how hot, cold, wet, or windy it might be!

Date:

Astronomy

May. 14, 2013 Rise Set
Actual Time 5:24 AM MDT 8:22 PM MDT
Civil Twilight 4:49 AM MDT 8:58 PM MDT
Nautical Twilight 4:04 AM MDT 9:43 PM MDT
Astronomical Twilight 3:09 AM MDT 10:38 PM MDT
Moon 9:07 AM MDT (5/14) No Moon Set
Length of Visible Light 16h 09m
Length of Day
14h 58m
Waxing Crescent, 19% of the Moon is Illuminated
May 14
Waxing Crescent
May 17
First Quarter
May 24
Full
May 31
Last Quarter
Jun 8
New

Hourly Weather History & Observations

Time (MDT) Temp. Dew Point Humidity Pressure Visibility Wind Dir Wind Speed Gust Speed Precip Events Conditions
12:51 AM 73.9 °F 37.0 °F 26% 29.49 in 10.0 mi SSW 17.3 mph - N/A   Clear
1:41 AM 73.4 °F 35.6 °F 25% 29.65 in 10.0 mi WNW 25.3 mph 32.2 mph N/A   Clear
1:51 AM 71.1 °F 36.0 °F 28% 29.55 in 10.0 mi WNW 12.7 mph 27.6 mph N/A   Clear
2:51 AM 63.0 °F 48.0 °F 58% 29.62 in 10.0 mi NNW 27.6 mph 36.8 mph N/A   Clear
3:51 AM 57.9 °F 50.0 °F 75% 29.68 in 10.0 mi NNW 8.1 mph - N/A   Clear
4:51 AM 55.9 °F 50.0 °F 80% 29.72 in 10.0 mi NW 11.5 mph - N/A   Clear
5:51 AM 53.1 °F 48.9 °F 86% 29.76 in 10.0 mi WNW 11.5 mph - N/A   Clear
6:51 AM 55.0 °F 50.0 °F 83% 29.79 in 10.0 mi WNW 9.2 mph - N/A   Clear
7:51 AM 60.1 °F 45.0 °F 57% 29.81 in 10.0 mi NW 15.0 mph 24.2 mph N/A   Clear
8:51 AM 63.0 °F 28.9 °F 28% 29.81 in 10.0 mi NW 34.5 mph 46.0 mph N/A   Clear
9:51 AM 64.9 °F 27.0 °F 24% 29.83 in 10.0 mi NW 33.4 mph 44.9 mph N/A   Clear
10:51 AM 66.9 °F 25.0 °F 21% 29.84 in 10.0 mi WNW 32.2 mph 43.7 mph N/A   Clear
12:51 PM 71.1 °F 27.0 °F 19% 29.83 in 10.0 mi NW 21.9 mph 36.8 mph N/A   Clear
1:51 PM 72.0 °F 26.1 °F 18% 29.81 in 10.0 mi WNW 28.8 mph 36.8 mph N/A   Clear
2:51 PM 72.0 °F 25.0 °F 17% 29.82 in 10.0 mi NW 20.7 mph 32.2 mph N/A   Clear
3:51 PM 72.0 °F 28.0 °F 20% 29.83 in 10.0 mi NNW 17.3 mph 28.8 mph N/A   Clear
4:51 PM 72.0 °F 28.0 °F 20% 29.83 in 10.0 mi NW 18.4 mph 25.3 mph N/A   Clear
5:51 PM 71.1 °F 28.0 °F 20% 29.83 in 10.0 mi NNW 15.0 mph - N/A   Clear
7:51 PM 66.0 °F 28.9 °F 25% 29.84 in 10.0 mi North 6.9 mph - N/A   Clear
8:51 PM 61.0 °F 30.9 °F 32% 29.86 in 10.0 mi Calm Calm - N/A   Clear
9:51 PM 54.0 °F 33.1 °F 45% 29.89 in 10.0 mi Calm Calm - N/A   Clear
10:51 PM 50.0 °F 33.1 °F 52% 29.90 in 10.0 mi Calm Calm - N/A   Partly Cloudy
11:51 PM 46.9 °F 32.0 °F 56% 29.90 in 10.0 mi Calm Calm - N/A   Clear